Location: Greasy Corner
(35.0073°N, 90.4484°W)
Time: 05:39:09
(UTC+00:00)

Daily predictions for brighter satellites

Satellite Brightness Start Highest point End
(mag) Time Altitude Azimuth Time Altitude Azimuth Time Altitude Azimuth
Gbstr 26 Del rocket 3.2 00:00:07 10° SSW 00:04:05 43° SE 00:05:33 29° E
Cosmos 1354 Rocket 4.3 00:01:58 10° S 00:06:59 46° ESE 00:10:25 19° NE
Meteor 1-20 Rocket 4.2 00:02:43 10° N 00:08:03 52° E 00:13:21 10° SSE
Spot 4 Rocket 4.3 00:04:40 10° SE 00:09:26 42° ENE 00:14:14 10° N
Cosmos 1697 Rocket 2.9 00:04:41 10° S 00:10:00 47° ESE 00:13:23 22° NE
Cosmos 1743 2.1 00:06:49 10° N 00:10:04 74° E 00:13:17 10° S
IRIDIUM 114 4.3 00:06:59 10° N 00:12:13 87° E 00:17:26 10° S
BREEZE-M DEB (TANK) 4.2 00:00:12 10° SSW 00:12:55 53° SE 00:15:42 27° ENE
SL-19 R/B 4.5 00:09:11 10° SE 00:13:59 39° ENE 00:18:59 10° N
Intelsat 5-1 Rocket 4.0 00:13:35 10° SSW 00:14:37 11° S 00:15:50 10° SSE
Cosmos 1606 Rocket 3.4 00:15:40 10° S 00:19:58 70° E 00:23:21 17° NNE
SJ-7 4.4 00:17:38 10° SSE 00:25:13 - N 00:20:41 43° E
IRIDIUM 103 4.5 00:16:10 10° N 00:21:23 76° W 00:26:34 10° S
Okean 1-7 Rocket 3.5 00:17:29 10° N 00:21:49 57° E 00:26:05 10° SSE
Resurs 1-3 3.6 00:20:00 10° SSE 00:24:09 53° ENE 00:28:20 10° N
Cosmos 1655 Rocket 4.3 00:19:14 10° N 00:25:06 41° E 00:30:54 10° SSE
Cosmos 1777 Rocket 4.5 00:22:53 10° SSW 00:28:04 61° WNW 00:33:11 10° N
Cosmos 1570 Rocket 4.4 00:24:30 10° NNW 00:29:48 66° WSW 00:35:02 10° S
Meteor 1-25 Rocket 4.2 00:25:15 10° N 00:31:03 65° E 00:36:45 10° SSE
NOSS 3-2 (C) 3.4 00:26:44 10° SW 00:31:29 59° NW 00:34:58 21° NNE
ARIANE 6 FM1 Upper Stage 4.2 00:34:02 10° NW 00:37:41 35° WSW 00:41:24 10° S
SPOT 1/Viking Rocket 4.1 00:41:02 10° S 00:46:08 59° W 00:51:17 10° NNW
Cosmos 1726 Rocket 3.8 00:43:50 10° S 00:48:26 76° W 00:50:30 33° N
Cosmos 2297 Rocket 2.0 00:42:55 10° NNW 00:48:37 78° ENE 00:54:09 11° SSE
NOSS 2-3 (E) 3.7 00:45:33 10° SSW 00:48:31 50° SSW 00:48:31 50° SSW
NOAA 6 3.8 00:45:41 10° SSE 00:50:46 73° ENE 00:55:52 10° N
OceanSat 1 rocket 4.5 00:47:06 10° SSE 00:51:54 86° ENE 00:56:41 10° NNW
Cosmos 1461 3.7 00:50:08 10° SW 00:53:47 42° WNW 00:54:05 41° NW
NOSS 2-3 (D) 4.0 00:50:32 10° SSW 00:53:17 43° SSW 00:53:17 43° SSW
Helios 1A Rocket 3.9 00:55:08 34° WNW 00:55:25 35° WNW 00:58:31 10° SW
BREEZE-M DEB (TANK) 4.0 00:52:47 10° WSW 00:56:27 32° WNW 00:56:27 32° WNW
Meteor 2-20 4.4 00:52:26 10° S 00:58:35 86° W 01:03:10 19° N
CZ-4C R/B 3.3 00:51:38 10° NNW 00:58:48 47° NE 00:59:10 47° ENE
YAOGAN 1 3.5 01:00:37 10° S 01:04:41 45° W 01:08:47 10° NNW
Cosmos 1980 Rocket 2.5 01:04:40 10° S 01:09:03 53° SSE 01:09:03 53° SSE
Meteor 2-20 Rocket 4.5 01:15:15 10° S 01:21:39 80° W 01:22:33 67° NNW
H-2A R/B 3.2 01:23:35 10° WSW 01:25:15 32° SW 01:25:15 32° SW
USA 238 DEB 3.6 01:24:06 10° SSW 01:29:11 67° SW 01:29:11 67° SW
USA 238 3.6 01:24:11 10° SSW 01:29:14 66° SW 01:29:14 66° SW
Cosmos 2227 Rocket 4.3 01:33:32 10° NNW 01:34:32 16° NNW 01:34:32 16° NNW
CZ-4C R/B 4.5 02:39:57 10° NW 02:44:13 31° WNW 02:44:13 31° WNW
Atlas Centaur 2 4.3 09:27:36 29° SE 09:27:36 29° SE 09:31:40 10° SE
CZ-3 Stage 3 3.9 10:03:34 61° WSW 10:05:55 75° S 10:40:35 10° E
Cosmos 1980 Rocket 4.5 10:04:01 14° NNE 10:06:45 19° ENE 10:10:36 10° E
Timation 1 Rocket 4.5 10:25:40 40° S 10:27:52 71° ESE 10:33:48 10° NNE
Centaur AC-112 4.4 10:29:42 34° SSW 10:31:26 42° SSE 10:48:02 10° E
Cosmos 1503 Rocket 4.0 10:33:23 73° E 10:33:23 73° E 10:38:15 10° SSE
Cosmos 1544 Rocket 4.1 10:39:23 54° ENE 10:39:43 56° E 10:44:01 10° SSE
Cosmos 1697 Rocket 2.5 10:49:33 61° NW 10:50:33 80° WSW 10:56:11 10° SSE
IRS-1D 3.8 10:47:00 10° NNE 10:51:58 66° ESE 10:57:01 10° S
Atlas 2A Centaur Rocket 3.7 10:54:03 18° S 10:54:03 18° S 10:55:10 10° SSE
SJ-11-01 4.1 10:50:55 10° N 10:55:37 81° WNW 11:00:17 10° SSW
Meteor 2-12 Rocket 4.4 10:51:02 10° SSW 10:57:04 60° W 11:03:07 10° N
USA 238 DEB 4.0 10:54:14 39° NW 10:57:24 67° WSW 11:05:30 10° SSE
USA 238 4.0 10:54:18 38° NW 10:57:32 68° WSW 11:05:39 10° SSE
Cosmos 1777 Rocket 4.3 10:59:16 47° SW 10:59:16 47° SW 11:03:35 10° S
Nadezhda 4 Rocket 4.5 10:53:05 10° S 10:59:17 62° E 11:05:29 10° NNE
COSMOS 2406 4.4 10:55:16 10° S 11:00:33 42° ESE 11:05:52 10° NE
Cosmos 468 Rocket 3.9 11:00:55 10° SSW 11:06:08 65° WNW 11:11:20 10° N
Delta 2 Rocket 3.4 11:07:57 45° ENE 11:07:57 45° ENE 11:10:10 10° E
Atlas Centaur 2 4.3 11:09:32 19° SW 11:12:25 23° SSW 11:18:27 10° SSE
Cosmos 1782 3.8 11:14:26 28° SSW 11:14:26 28° SSW 11:16:20 10° S
CZ-4 R/B 3.6 11:13:11 10° N 11:17:49 76° WNW 11:22:24 10° SSW
CZ-3 R/B 3.4 11:08:46 23° W 11:19:12 45° SSW 11:25:55 10° SE
Cosmos 1536 Rocket 3.6 11:15:24 10° SSW 11:19:45 55° W 11:24:06 10° N
OPS 6432 4.4 11:19:53 58° SW 11:19:53 58° SW 11:23:10 10° SSE
Cosmos 2082 Rocket 2.1 11:14:19 10° SSW 11:19:52 64° WNW 11:25:28 10° NNE
Helios 1A Rocket 3.6 11:19:31 10° SE 11:22:39 41° ENE 11:25:50 10° N
BREEZE-M DEB (TANK) 4.2 11:23:10 15° N 11:23:57 16° NNE 11:26:50 10° NE
SKYMED 2 3.4 11:26:49 10° S 11:31:09 77° WSW 11:35:30 10° NNW
BREEZE-M DEB (TANK) 3.7 11:33:08 20° NW 11:37:48 62° NNE 11:41:07 10° ESE
Cosmos 2098 Rocket 4.0 11:32:58 10° NNW 11:38:24 46° W 11:43:53 10° SSW
SL-8 R/B 4.0 11:39:29 21° NW 11:42:38 63° NE 11:47:20 10° ESE
Cosmos 372 Rocket 4.0 11:39:03 10° NNW 11:44:09 79° ENE 11:49:12 10° SSE
Cosmos 2369 3.9 11:43:32 10° NNW 11:49:14 76° ENE 11:54:52 10° SSE
Tiangong -0.7 11:48:48 20° NNW 11:50:12 27° N 11:53:02 10° ENE
Cosmos 1980 Rocket 2.3 11:45:48 11° NNW 11:51:04 54° WSW 11:56:28 10° S
SL-24 R/B - RUBIN 2 3.4 11:47:28 13° NNW 11:51:16 85° WSW 11:55:41 10° SSE
USA 267 4.1 11:46:04 10° NE 11:52:25 52° SE 11:58:44 10° SSW
